Location: Roanoke
(37.2710°N, 79.9420°W)
Time: 19:43:54
(UTC-05:00)

Tiros 1 despin weight - Visible Passes

Search period start: 14 November 2019 00:00
Search period end: 24 November 2019 00:00
Orbit: 594 x 642 km, 48.2° (Epoch: 14 November)

Date Brightness Start Highest point End Pass type
(mag) Time Alt. Az. Time Alt. Az. Time Alt. Az.
14 Nov ? 17:47:49 10° NW 17:51:10 20° N 17:54:32 10° NE visible
14 Nov ? 19:29:53 10° NW 19:31:51 21° NNW 19:31:51 21° NNW visible
15 Nov ? 18:04:48 10° NW 18:08:12 20° N 18:10:40 14° NE visible
15 Nov ? 19:46:22 10° NW 19:47:44 18° NW 19:47:44 18° NW visible
16 Nov ? 18:21:32 10° NW 18:25:12 24° NNE 18:26:37 21° NE visible
16 Nov ? 20:02:50 10° NW 20:03:41 15° NW 20:03:41 15° NW visible
17 Nov ? 18:38:03 10° NW 18:42:06 32° NNE 18:42:38 31° NE visible
17 Nov ? 20:19:26 10° WNW 20:19:42 12° WNW 20:19:42 12° WNW visible
18 Nov ? 18:54:31 10° NW 18:58:46 49° NNE 18:58:46 49° NNE visible
19 Nov ? 19:11:01 10° NW 19:15:01 70° NW 19:15:01 70° NW visible
20 Nov ? 17:46:13 10° NW 17:50:24 37° NNE 17:54:22 11° E visible
20 Nov ? 19:27:42 10° WNW 19:31:28 46° WSW 19:31:28 46° WSW visible
21 Nov ? 18:02:41 10° NW 18:07:07 61° NNE 18:11:01 13° ESE visible
21 Nov ? 19:44:46 10° W 19:48:09 24° SW 19:48:09 24° SW visible
22 Nov ? 18:19:14 10° WNW 18:23:42 73° SW 18:28:01 11° SE visible
22 Nov ? 20:03:12 10° WSW 20:04:40 11° SW 20:05:10 11° SW visible
23 Nov ? 18:36:03 10° WNW 18:40:09 36° SW 18:44:18 10° SSE visible
